TimeEDT,TemperatureF,Dew PointF,Humidity,Sea Level PressureIn,VisibilityMPH,Wind Direction,Wind SpeedMPH,Gust SpeedMPH,PrecipitationIn,Events,Conditions,WindDirDegrees,DateUTC
12:40 AM,60.8,57.2,88,29.96,6.0,North,6.9,-,N/A,,Scattered Clouds,10,2012-10-27 04:40:00
12:54 AM,60.1,57.9,93,29.93,5.0,NNE,8.1,-,N/A,,Mostly Cloudy,30,2012-10-27 04:54:00
1:54 AM,60.1,57.9,93,29.92,6.0,North,6.9,-,N/A,,Overcast,360,2012-10-27 05:54:00
2:54 AM,61.0,59.0,93,29.89,6.0,NNE,9.2,-,N/A,,Overcast,30,2012-10-27 06:54:00
3:54 AM,61.0,59.0,93,29.87,5.0,NNE,11.5,-,N/A,,Overcast,30,2012-10-27 07:54:00
4:54 AM,61.0,59.0,93,29.85,3.0,NNE,9.2,-,N/A,,Overcast,30,2012-10-27 08:54:00
5:11 AM,60.8,59.0,94,29.86,3.0,NNE,10.4,-,N/A,,Overcast,30,2012-10-27 09:11:00
5:54 AM,61.0,59.0,93,29.85,6.0,NNE,9.2,-,N/A,,Overcast,30,2012-10-27 09:54:00
6:03 AM,60.8,59.0,94,29.87,6.0,NNE,9.2,-,N/A,,Overcast,30,2012-10-27 10:03:00
6:54 AM,61.0,59.0,93,29.85,5.0,NNE,9.2,-,0.00,,Light Drizzle,30,2012-10-27 10:54:00
7:54 AM,61.0,59.0,93,29.87,6.0,NNE,6.9,-,0.00,,Overcast,20,2012-10-27 11:54:00
8:54 AM,62.1,59.0,90,29.87,10.0,NE,9.2,-,N/A,,Overcast,40,2012-10-27 12:54:00
9:07 AM,62.6,57.2,82,29.89,10.0,NNE,13.8,19.6,N/A,,Overcast,30,2012-10-27 13:07:00
9:49 AM,62.6,57.2,82,29.88,10.0,NNE,9.2,-,N/A,,Mostly Cloudy,20,2012-10-27 13:49:00
9:54 AM,63.0,57.9,84,29.86,10.0,NNE,9.2,-,N/A,,Mostly Cloudy,20,2012-10-27 13:54:00
10:54 AM,64.0,57.0,78,29.86,10.0,NNE,11.5,19.6,N/A,,Mostly Cloudy,20,2012-10-27 14:54:00
11:15 AM,62.6,57.2,82,29.88,10.0,NNE,10.4,-,N/A,,Overcast,30,2012-10-27 15:15:00
11:54 AM,64.9,55.9,73,29.84,10.0,NNE,13.8,23.0,N/A,,Scattered Clouds,30,2012-10-27 15:54:00
12:54 PM,68.0,54.0,61,29.81,10.0,NNE,15.0,23.0,N/A,,Clear,30,2012-10-27 16:54:00
1:54 PM,69.1,52.0,54,29.78,10.0,NE,16.1,21.9,N/A,,Scattered Clouds,40,2012-10-27 17:54:00
2:54 PM,68.0,52.0,56,29.76,10.0,NE,15.0,21.9,N/A,,Scattered Clouds,40,2012-10-27 18:54:00
3:54 PM,66.9,51.1,57,29.75,10.0,NE,12.7,24.2,N/A,,Partly Cloudy,40,2012-10-27 19:54:00
4:54 PM,66.0,52.0,60,29.74,10.0,NE,12.7,-,N/A,,Partly Cloudy,40,2012-10-27 20:54:00
5:54 PM,64.9,52.0,63,29.74,10.0,NE,16.1,23.0,N/A,,Partly Cloudy,40,2012-10-27 21:54:00
6:54 PM,63.0,52.0,67,29.74,10.0,NE,13.8,23.0,N/A,,Partly Cloudy,40,2012-10-27 22:54:00
7:54 PM,63.0,51.1,65,29.75,10.0,NNE,10.4,23.0,N/A,,Clear,30,2012-10-27 23:54:00
8:54 PM,62.1,50.0,65,29.75,10.0,NE,16.1,21.9,N/A,,Clear,40,2012-10-28 00:54:00
9:54 PM,61.0,50.0,67,29.76,10.0,NNE,16.1,19.6,N/A,,Clear,20,2012-10-28 01:54:00
10:54 PM,61.0,48.9,64,29.77,10.0,NNE,11.5,19.6,N/A,,Clear,30,2012-10-28 02:54:00
11:54 PM,60.1,48.0,64,29.75,10.0,NNE,15.0,24.2,N/A,,Clear,20,2012-10-28 03:54:00